Location: Observatory
(52.1446°N, 0.4624°W)
Time: 11:23:11
(UTC+00:00)

ISS - Visible Passes

Search period start: 05 December 2025 00:00
Search period end: 15 December 2025 00:00
Orbit: 416 x 421 km, 51.6° (Epoch: 04 December)

Date Brightness Start Highest point End Pass type
(mag) Time Alt. Az. Time Alt. Az. Time Alt. Az.
12 Dec -0.6 07:01:29 10° S 07:03:41 16° SE 07:05:53 10° ESE visible
13 Dec -0.4 06:14:51 10° SSE 06:15:56 11° SE 06:17:00 10° ESE visible
14 Dec -1.7 07:01:05 10° SW 07:04:06 30° SSE 07:07:07 10° E visible
